Regional Weather Roundup
Issued by NWS

Home | Current Version | Previous Version | Text Only | Print | Product List | Glossary Off
Versions: 1 2 3 4 5 6 7 8 9 10 11 12 13 14 15 16 17 18 19 20 21 22 23 24 25 26 27 28 29 30 31 32 33 34 35 36 37 38 39 40 41 42 43 44 45 46 47 48 49 50

000
ASUS43 KBIS 242010
RWRND

NORTH DAKOTA REGIONAL WEATHER ROUNDUP
NATIONAL WEATHER SERVICE BISMARCK ND
200 PM CST SAT FEB 24 2018

NOTE: "FAIR" INDICATES FEW OR NO CLOUDS BELOW 12,000 FEET WITH NO
SIGNIFICANT WEATHER AND/OR OBSTRUCTIONS TO VISIBILITY.


NDZ001>003-009>011-017-242100-
NORTHWEST NORTH DAKOTA

CITY           SKY/WX    TMP DP  RH WIND       PRES   REMARKS
WILLISTON      CLOUDY    18   6  59 SW10      29.66F WCI   6
MINOT          FLURRIES  21  13  71 S14       29.66F WCI   8
MINOT AFB      CLOUDY    20  13  74 SW8         N/A  HAZE    WCI  10
$$

NDZ018>021-031>035-040>046-242100-
SOUTHWEST NORTH DAKOTA

CITY           SKY/WX    TMP DP  RH WIND       PRES   REMARKS
BISMARCK       LGT SNOW  20  15  81 S9        29.73F WCI   9
DICKINSON      SUNNY     22   9  57 W9        29.63F WCI  12
GARRISON         N/A     19  14  81 S12       29.67F WCI   7
HETTINGER ARPT SUNNY     18   8  65 W10       29.69F WCI   6
$$

NDZ004>008-012>016-024-026-027-054-242100-
NORTHEAST NORTH DAKOTA

CITY           SKY/WX    TMP DP  RH WIND       PRES   REMARKS
GRAND FORKS    CLOUDY    14   9  80 S15       29.88F WCI  -1
GRND FRKS AFB  PTSUNNY   15   9  74 S14       29.85F WCI   1
DEVILS LAKE    FAIR      22  15  75 S12       29.75F WCI  10
$$

NDZ022-023-025-028>030-036>039-047>053-242100-
SOUTHEAST NORTH DAKOTA

CITY           SKY/WX    TMP DP  RH WIND       PRES   REMARKS
FARGO          CLOUDY    16   6  65 SE9       29.89F WCI   4
JAMESTOWN      LGT SNOW  15  11  83 S10       29.76F FOG     WCI   2
$$




USA.gov is the U.S. government's official web portal to all federal, state and local government web resources and services.